SL-14 DEB, 47087

Orbit data source: Space-Track

SL-14 DEB, 47087 is space debris in LEO originally from a launch on Thu, 15 Aug 1991 UTC launched from the Plesetsk Missile And Space Complex (PKMTR). Debris objects in space refer to the collection of defunct objects orbiting the Earth. Examples of debris include non-operational satellites, rocket bodies, and fragments generated from explosions, collisions, or faulty payload assembly.

Loading next visibility...
Identifier
47087, 1991-056DM
Orbit
LEO
Country
Flag of CISCIS
Related business
Manufacturer
Unknown
Mission
Spacecraft
Bus & Motor
Unknown
Mass
Unknown
Launch date (UTC)
1991-08-15 (35 years ago)
Launch vehicle
Unknown
Launch site
Plesetsk Missile And Space Complex (PKMTR)
Object type
Payload
Rocket body
Debris
Shape & HBR
Unknown shape, 0.1 m
Radar Cross Section
Small (<0.1 m²)

Expand to show TLE details & history
Last TLE update: 19 hours ago

TLE from 19 hours ago
0 SL-14 DEB
1 47087U 91056DM  26126.34152231  .00000168  00000-0  35701-3 0  9999
2 47087  82.5999 158.2292 0063076 131.9014 228.7517 13.24558778266040
Epoch: 2026-05-06T08:11Z
TLE epoch observation values (Epoch: 2026-05-06T08:11:47.527Z)
Latitude
-0.00002°
Longitude
171.07777°
Altitude
1,201.731 km
Speed
7.238 km/s
True Right ascension
10h 32m 55s
True Declination
0° 00' 00"
Sunlit
Object was in daylight at epoch
Visualization orbit readout
Latitude
Unknown
Longitude
Unknown
Altitude
Unknown
Speed
Unknown
Apparent Right ascension
Unknown
Apparent Declination
Unknown
Sunlit
N/A
Visualization observer readout
Local Sidereal Time
11:28:03
Azimuth
Unknown
Elevation
Unknown
Doppler factor
Unknown
Orbital elements
Apogee altitude
1,212.166 km
Perigee altitude
1,117.013 km
Semi-major axis
7,542.726 km
Eccentricity
0.00631
Inclination
82.5999°
RAAN
158.2292°
Arg. of periapsis
131.9014°
True anomaly
228.21108°
Mean anomaly
228.7517°
Eccentric anomaly
228.48111°
Mean motion
3.31322 °/min
Orbital period
108.66 mins
BSTAR
0.00035701
Loading maneuver chart data...
Computing Atmospheric mass density...
Loading historical data...
Loading historical data...
Loading historical data...
Loading historical data...
Loading historical data...
Loading historical data...
Loading historical data...

Documentation

Showing up to 5 results
|